Date,TemperatureHighF,TemperatureAvgF,TemperatureLowF,DewpointHighF,DewpointAvgF,DewpointLowF,HumidityHigh,HumidityAvg,HumidityLow,PressureMaxIn,PressureMinIn,WindSpeedMaxMPH,WindSpeedAvgMPH,GustSpeedMaxMPH,PrecipitationSumIn
2013-6-1,61.7,51.3,41.2,46.8,40.8,36.5,86,68,51,30.27,30.16,8,1,8,0.00
2013-6-2,67.3,55.5,37.4,43.9,40.6,33.8,90,60,41,30.43,30.27,5,0,6,0.00
2013-6-3,71.4,56.6,39.0,56.7,47.8,35.7,90,73,56,30.48,30.42,2,0,6,0.00
2013-6-4,76.3,58.9,42.6,53.4,47.6,39.9,93,68,43,30.48,30.30,5,0,6,0.00
2013-6-5,72.7,56.9,41.2,53.4,47.3,38.2,91,71,46,30.30,30.12,4,0,10,0.00
2013-6-6,73.2,59.3,48.7,53.7,48.5,43.6,85,69,36,30.25,30.15,5,1,9,0.00
2013-6-7,71.2,55.3,42.3,54.0,47.1,-99.9,92,77,54,30.30,30.25,7,1,12,0.00
2013-6-8,81.3,60.9,42.1,52.4,46.6,39.1,90,63,29,30.30,30.08,5,0,5,0.00
2013-6-9,73.9,59.5,49.3,56.2,50.4,44.8,87,73,52,30.09,29.97,4,1,8,0.00
2013-6-10,67.3,56.2,48.6,52.8,48.5,44.0,88,76,58,30.00,29.88,5,1,6,0.00
2013-6-11,62.4,54.0,42.6,54.9,48.1,39.9,91,81,60,29.89,29.69,4,0,6,0.00
2013-6-12,68.2,57.7,52.9,55.3,50.7,46.8,92,78,57,29.69,29.57,5,0,8,0.04
2013-6-13,62.8,55.0,48.0,48.5,44.9,41.4,86,70,50,29.78,29.55,8,1,10,0.00
2013-6-14,70.0,56.8,46.2,51.7,46.3,41.4,89,69,50,29.82,29.57,10,1,11,0.08
2013-6-15,61.0,51.8,46.6,48.4,45.4,42.2,92,80,59,29.57,29.42,6,1,9,0.12
2013-6-16,66.9,56.9,49.8,51.0,48.8,46.3,89,76,54,29.98,29.57,2,0,5,0.02
2013-6-17,71.2,58.9,44.8,55.1,50.8,42.6,94,76,50,30.04,29.98,4,0,6,0.00
2013-6-18,78.8,64.1,54.1,55.2,51.5,48.0,85,66,42,30.02,29.90,3,0,5,0.00
2013-6-19,71.4,59.6,50.5,50.0,47.2,42.8,87,65,42,30.03,29.94,8,1,9,0.00
2013-6-20,81.7,63.1,46.2,54.5,49.1,41.3,90,64,29,30.02,29.79,10,1,10,0.14
2013-6-21,71.2,60.3,54.1,58.4,53.1,47.3,94,78,57,29.79,29.62,5,0,6,0.02
2013-6-22,67.8,55.0,49.8,52.2,48.9,46.1,92,81,54,29.61,29.30,6,1,11,0.26
2013-6-23,59.9,53.2,49.3,55.3,49.5,45.2,93,87,75,29.88,29.37,9,1,12,0.22
2013-6-24,64.9,53.9,47.3,46.9,44.2,42.6,87,71,50,30.24,29.89,6,1,6,0.00
2013-6-25,64.2,53.6,39.0,50.4,44.9,36.0,91,74,55,30.38,30.25,2,0,6,0.00
2013-6-26,70.0,59.4,49.6,49.2,47.0,44.1,88,65,45,30.41,30.36,7,0,10,0.00
2013-6-27,58.3,53.9,48.0,55.1,48.9,42.4,92,83,73,30.40,30.11,3,0,4,0.14
2013-6-28,64.2,56.7,49.5,57.3,52.4,43.4,94,86,73,30.11,29.89,5,1,12,0.12
2013-6-29,60.6,54.9,48.4,54.0,48.0,43.5,91,78,65,30.13,30.04,4,1,9,0.00
2013-6-30,70.5,58.5,50.2,57.1,51.4,44.9,89,78,60,30.09,29.84,7,1,12,0.06